Weather in Bereg

Ukraine / Rovno District     50°12′22″N   25°40′08″E
temp.,
°C
wind,
m/s
gust,
m/s
humid.,
%
clouds,
%
prec.,
mm/h
press.,
hPa
HPBL,
m
23 january, sat
sat2323:00+4s51384100 0.0 1006254
02:00+4s51385100 0.0 1006327
05:00+3s5118639 0.0 1005211
08:00+4sse4108570 0.0 1005198
11:00+6s6128288 0.0 1005292
14:00+6sse4108394 0.0 1004248
17:00+4sse378897 0.0 1003113
20:00+3se4108491 0.0 1002182
24 january, sun
sun2423:00+2se4990100 0.0 1001202
02:00+1se3894100 0.0 1000236
05:000se3795100 0.0 998188
08:00+2sse2597100 0.0 997144
11:00+2s2595100 0.0 996298
14:00+2wsw2497100 0.8 994163
17:00+4wsw71493100 3.3 995649
20:00+3sw51291100 3.6 998485
25 january, mon
mon2523:00+2ssw3894100 0.0 1000250
02:00+2ssw119497 0.1 100122
05:00+1n119798 0.1 100131
08:000e359695 0.1 1002121
11:00+3ene4888100 0.0 1001379
14:00+3ne61187100 0.0 999477
17:00+2ne71297100 1.5 996585
20:00+2nne81497100 10.1 992553
26 january, tue
tue2623:00+1n91499100 12.6 990501
02:00−1nnw101798100 23.7 989697
05:00−2nw122096100 6.3 9901135
08:00−2wnw132195100 12.1 9931412
11:00−2wnw142294100 5.8 9961461
14:00−2wnw142194100 9.8 9981400
17:00−2wnw132193100 2.1 10011332
20:00−2w111895100 3.6 10041222
27 january, wed
wed2723:00−2w111794100 1.3 1006882
02:00−2w91595100 2.3 1007949
05:00−2w91595100 0.8 1008953
08:00−3w81491100 1.1 1009775
11:00−3w71290100 0.1 1011761
14:00−2w61089100 0.1 1011803
17:00−2w51092100 0.1 1012666
20:00−4wsw379299 0.1 1013253